Dewpoint
47 46 47 47 47 48 49 49 49 49 50 51 52 52 52 53 52 35 27 26 35 49 47 20 16 11 13 16 16 14 10 2 2 8 26 37 40 44 47 46 44 42 41 57 62
46 46 47 47 47 47 47 48 48 49 49 51 52 52 52 53 45 31 48 57 54 55 17 11 13 16 11 17 17 14 11 5 0 6 30 38 40 46 45 47 47 47 57 59 60
46 46 46 46 46 46 47 47 48 48 49 51 52 53 53 51 37 15 55 56 58 49 19 16 13 15 15 18 18 18 15 11 6 12 26 35 39 45 44 45 47 49 52 53 51
45 45 45 45 45 45 46 47 47 48 50 51 52 53 53 46 10 21 54 55 53 33 20 16 13 13 18 20 21 18 16 15 10 12 22 37 43 43 44 46 47 48 49 48 47
44 44 45 45 45 45 45 46 47 49 50 51 52 53 45 31 18 23 49 48 31 20 14 12 13 13 16 21 22 19 19 15 14 18 26 39 44 46 48 50 47 47 46 46 46
43 43 43 44 44 44 44 45 47 49 50 52 52 52 43 24 2 14 15 20 22 18 13 10 11 11 13 16 20 21 20 17 17 23 36 42 44 46 48 50 50 48 47 46 46
42 43 43 43 43 43 44 46 47 49 51 53 52 45 33 22 16 14 17 10 12 16 15 12 12 14 13 15 18 19 16 18 23 31 36 42 43 44 47 49 49 49 49 49 50
42 42 42 43 43 44 45 47 48 50 52 51 52 41 29 19 16 15 11 14 16 16 15 15 14 16 16 17 16 17 21 21 22 29 35 40 32 44 47 49 48 49 49 51 51
41 41 42 43 44 45 46 47 49 51 51 51 47 39 21 30 14 11 8 9 12 14 18 15 14 15 13 13 14 18 19 21 21 28 33 37 28 43 47 48 48 48 49 50 50
41 40 42 44 44 45 46 48 49 50 50 43 36 32 27 7 18 18 15 10 14 15 15 16 12 11 10 7 6 11 18 20 21 25 30 34 31 41 45 47 47 47 48 49 48
40 41 43 43 44 45 44 39 41 43 41 31 27 22 10 17 21 17 15 13 15 16 14 12 6 4 7 9 7 6 12 17 20 24 29 29 31 39 43 45 46 47 47 47 47
43 44 44 42 43 45 43 35 36 38 33 26 25 25 22 21 21 15 15 12 14 11 11 10 9 6 2 4 4 6 9 14 18 22 26 24 29 38 40 42 44 44 45 45 43
44 44 44 43 45 41 40 35 33 41 35 21 25 22 22 25 23 13 16 11 9 10 7 8 6 6 2 2 6 7 8 12 14 23 24 23 26 34 37 39 40 41 42 42 40
44 44 43 45 41 30 39 34 37 46 30 24 20 25 25 24 20 19 14 13 10 10 7 6 6 4 6 6 5 8 5 9 13 21 19 22 20 30 34 35 36 38 39 39 37
43 43 43 44 37 26 32 38 41 46 31 5 18 28 25 20 14 13 14 15 12 11 10 8 8 7 4 4 4 6 5 6 9 14 21 21 20 25 31 32 34 36 36 37 35
43 42 41 40 43 38 38 41 46 37 26 6 21 24 22 22 15 14 14 15 14 11 11 10 7 8 6 5 4 5 7 7 8 10 17 24 24 22 25 29 31 34 35 36 35
43 40 39 39 38 43 44 43 35 32 6 11 17 19 19 18 17 13 15 15 11 13 12 10 9 7 11 8 10 6 11 6 4 7 9 17 21 24 25 28 31 32 34 35 36
42 39 43 38 41 45 44 35 31 9 12 17 16 15 14 10 12 15 12 11 12 10 7 4 6 6 7 10 6 7 9 13 6 4 4 7 15 16 23 25 29 31 34 35 36
41 38 33 38 44 45 40 36 29 23 23 23 18 8 4 6 11 13 15 11 10 12 12 10 7 3 6 8 9 8 7 9 14 11 8 6 10 13 20 22 28 31 34 36 37
31 31 30 39 45 44 33 30 25 26 22 22 17 14 17 13 18 19 11 23 23 22 22 15 13 11 9 9 8 10 6 10 14 11 9 8 10 10 18 19 25 30 33 36 37
29 26 32 39 43 34 35 27 24 22 21 23 22 20 19 16 19 20 17 26 26 26 28 23 20 15 14 12 9 6 7 11 11 14 15 11 9 15 17 23 25 28 32 36 38
27 34 30 34 29 31 31 23 22 18 20 22 23 26 24 23 22 20 20 28 26 27 28 30 28 18 14 13 12 12 10 10 15 11 13 16 12 13 20 20 28 26 30 35 39
25 27 27 30 31 31 19 18 15 17 21 19 20 22 24 21 19 18 19 32 25 25 27 28 27 19 15 15 15 14 12 10 13 16 13 17 15 14 16 18 26 28 28 35 38
26 31 25 24 22 17 13 10 9 12 16 14 20 20 19 19 20 19 20 23 25 20 29 29 28 26 17 13 14 15 14 14 15 21 19 15 13 14 15 18 20 24 29 35 38
27 26 21 28 27 16 14 10 6 9 9 7 16 19 13 13 16 18 20 22 19 22 23 25 24 25 25 22 18 17 16 13 12 14 19 18 14 14 14 20 21 22 28 34 36
31 28 22 19 16 14 15 15 6 7 9 7 6 8 7 9 9 9 9 12 16 18 20 21 23 24 24 23 24 23 21 16 13 11 13 14 16 17 16 14 18 24 31 33 35
26 25 26 21 15 15 16 9 9 12 10 7 8 10 8 7 11 13 14 15 15 16 18 17 18 17 21 22 22 24 22 18 16 14 14 15 17 17 18 19 27 30 33 34 36
Lifted_Index
15 15 15 14 14 14 13 13 13 13 13 12 12 12 12 12 11 10 10 11 12 11 10 9 8 8 7 7 6 6 4 1 -0 -1 -1 -2 -2 -2 -2 -2 -1 -0 -1 -2 -2
15 15 15 15 15 14 14 14 13 13 13 12 12 11 11 11 10 10 10 11 11 11 10 9 8 7 7 6 6 5 4 1 0 -0 -0 -1 -2 -2 -2 -2 -1 -1 -1 -1 -1
16 16 16 15 15 15 15 14 14 13 13 12 11 11 10 10 9 9 10 10 10 11 10 9 8 6 5 5 5 5 3 2 1 1 1 -0 -2 -2 -2 -2 -2 -1 -1 -0 0
17 16 16 16 16 15 15 15 14 13 12 11 11 10 9 8 8 9 10 10 10 10 10 9 8 6 4 4 4 4 4 3 3 3 2 -0 -1 -2 -2 -2 -1 -1 -0 0 1
17 17 17 17 16 16 15 15 14 13 12 11 10 10 8 7 8 9 10 10 10 10 10 9 8 6 4 3 3 3 4 4 5 4 2 -0 -1 -1 -2 -1 -1 -0 0 1 1
18 17 17 17 17 16 15 15 14 13 12 11 10 9 8 7 8 10 10 10 10 9 9 9 8 7 5 4 3 3 3 4 4 3 1 -0 -1 -1 -1 -1 -1 -0 0 0 0
18 18 18 18 17 16 16 15 14 12 11 10 10 9 8 8 9 10 10 10 9 9 9 9 8 8 6 4 4 3 3 4 3 3 1 0 -0 -0 -1 -1 -1 -1 -0 -0 -0
19 18 18 18 17 16 15 14 13 12 11 10 9 8 8 8 9 9 9 9 9 9 9 9 9 8 7 5 4 3 3 2 2 2 1 0 0 0 -0 -1 -1 -1 -1 -1 -1
19 19 18 18 17 16 14 13 12 11 10 9 9 8 8 8 9 9 9 9 9 9 9 9 8 8 7 5 4 3 2 1 1 1 1 0 1 0 -0 -1 -1 -1 -1 -1 -1
19 19 18 17 16 15 13 11 10 9 9 8 8 8 8 8 8 8 8 8 8 8 8 8 8 7 6 5 4 2 1 0 0 1 1 0 0 0 0 -1 -1 -1 -1 -1 -1
19 19 18 17 16 13 11 10 9 8 8 7 7 8 8 8 8 8 8 8 7 7 7 7 7 6 5 5 3 2 1 0 0 0 1 0 0 0 0 -0 -0 -0 -0 -0 -1
18 18 18 17 15 13 11 10 10 9 8 8 8 8 8 8 8 8 8 8 7 6 6 6 6 5 5 4 4 3 1 0 0 0 1 1 0 1 1 0 0 0 1 1 1
18 17 17 16 15 13 11 12 12 10 8 7 8 8 8 8 7 7 7 7 7 6 6 5 5 5 5 5 4 4 2 1 0 0 1 1 1 1 1 1 1 1 2 2 2
17 17 17 16 14 13 12 12 12 9 7 6 7 7 7 7 7 7 7 7 6 6 5 5 5 5 5 5 5 4 3 2 1 0 0 0 0 1 2 2 2 2 3 3 3
17 17 16 15 14 13 13 12 11 7 5 6 7 7 7 7 7 7 7 7 6 6 5 5 5 5 5 5 5 5 3 2 1 0 -0 -0 0 1 2 2 3 3 3 4 4
17 17 15 14 13 13 13 11 8 5 5 6 6 6 6 6 6 6 6 6 6 5 5 5 5 5 5 5 5 5 4 2 1 -0 -0 -0 0 1 1 2 2 3 3 4 5
17 17 15 14 13 12 11 9 6 5 6 6 6 6 5 5 5 6 6 5 5 4 4 4 4 5 5 5 4 4 3 2 1 -0 -0 0 1 1 1 1 1 2 3 4 4
17 16 15 14 13 11 9 7 6 6 7 7 6 6 5 5 5 5 5 4 4 4 3 3 3 4 4 4 4 3 3 2 0 -0 -0 -0 0 1 0 0 0 1 2 3 4
17 15 14 14 12 10 7 6 6 7 7 6 5 5 4 4 4 4 3 3 3 3 3 2 2 2 3 4 4 3 2 2 1 -0 -0 -0 0 0 0 -0 -0 1 2 3 4
15 14 13 13 10 8 6 6 6 7 7 6 5 4 4 3 3 3 2 2 3 2 2 2 2 2 3 4 4 3 3 1 0 -0 -0 -0 -0 -0 -0 -0 -0 1 2 3 3
13 13 12 11 9 7 6 6 7 8 7 6 5 4 4 3 3 2 2 2 3 3 2 2 2 2 2 3 3 3 3 1 0 -0 -0 -0 -0 -0 -0 -0 0 0 1 2 2
12 11 12 10 9 8 7 8 8 8 8 7 6 5 5 4 4 3 2 2 3 3 2 2 2 2 2 2 2 2 2 1 1 0 -0 -0 -0 0 0 -0 -0 0 0 1 1
11 11 11 11 9 9 9 9 9 9 8 8 7 6 6 5 4 3 2 2 3 3 3 2 1 1 1 1 1 1 1 1 0 0 -0 -0 -0 0 0 0 -0 -0 -0 -0 1
11 11 11 11 10 10 9 9 9 9 9 8 8 7 7 6 5 4 3 4 4 4 4 3 2 1 -0 -0 0 0 0 0 0 -0 0 0 0 0 0 0 -0 -1 -1 -0 0
11 11 11 10 10 10 9 9 9 9 9 8 8 8 7 6 6 5 4 5 6 5 5 4 2 1 0 -0 -0 0 0 0 -0 -0 0 1 1 0 0 0 -0 -0 -1 -0 0
11 11 11 10 9 9 9 9 9 9 9 8 8 8 8 7 7 6 6 7 7 6 5 4 3 1 1 1 0 -0 0 0 0 0 0 1 1 0 -0 -0 -0 -1 -1 -1 -0
11 11 11 10 9 8 8 8 9 9 9 8 8 8 8 8 8 7 7 8 7 6 5 5 3 2 1 1 -0 -0 -0 0 1 0 0 0 1 0 -0 -0 -1 -1 -1 -1 -0